Regional Weather Roundup
Issued by NWS

Home | Current Version | Previous Version | Graphics & Text | Print | Product List | Glossary On
Versions: 1 2 3 4 5 6 7 8 9 10 11 12 13 14 15 16 17 18 19 20 21 22 23 24 25 26 27 28 29 30 31 32 33 34 35 36 37 38 39 40 41 42 43 44 45 46 47 48 49 50
000
ASUS43 KLOT 260002
RWRIL

ILLINOIS REGIONAL WEATHER ROUNDUP
NATIONAL WEATHER SERVICE CHICAGO/ROMEOVILLE IL
700 PM CDT SAT APR 25 2015

NOTE: "FAIR" INDICATES FEW OR NO CLOUDS BELOW 12,000 FEET WITH NO
SIGNIFICANT WEATHER AND/OR OBSTRUCTIONS TO VISIBILITY.

* THESE STATIONS ARE NOT UNDER NWS QUALITY CONTROL. THEY ALSO MAY NOT
  REPORT WEATHER SUCH AS PRECIPITATION OR FOG.

ILZ001-002-007-009-015-016-024-260100-
NORTHWEST ILLINOIS

CITY           SKY/WX    TMP DP  RH WIND       PRES   REMARKS
MOLINE         CLOUDY    49  39  68 NE17      29.77R
6HR MIN TEMP:  47; 6HR MAX TEMP:  51;

STERLING*      CLOUDY    46  39  76 NE15      29.80R
$$

ILZ003-004-008-010-011-017-018-260100-
NORTH CENTRAL ILLINOIS

CITY           SKY/WX    TMP DP  RH WIND       PRES   REMARKS
ROCKFORD       CLOUDY    46  33  60 NE13      29.86R
6HR MIN TEMP:  45; 6HR MAX TEMP:  51; 6HR PCP:  0.01;

FREEPORT*      CLOUDY    44  35  71 NE9       29.85R
$$

ILZ005-006-012>014-019>023-260100-
NORTHEAST ILLINOIS

CITY           SKY/WX    TMP DP  RH WIND       PRES   REMARKS
CHICAGO-OHARE  CLOUDY    42  34  73 NE13      29.81R
6HR MIN TEMP:  42; 6HR MAX TEMP:  48; 6HR PCP:  0.07;

CHICAGO-MIDWAY DRIZZLE   46  39  76 NE14      29.81R
6HR MIN TEMP:  45; 6HR MAX TEMP:  49; 6HR PCP:  0.10;

AURORA         CLOUDY    46  38  73 NE14      29.80R
6HR MIN TEMP:  46; 6HR MAX TEMP:  49; 6HR PCP:  0.04;

LANSING*       DRIZZLE   44  40  85 NE13      29.79R
WAUKEGAN       NOT AVBL
DUPAGE AIRPORT CLOUDY    44  38  79 NE13      29.80R
6HR MIN TEMP:  43; 6HR MAX TEMP:  48; 6HR PCP:  0.10;

WHEELING       CLOUDY    42  32  67 NE10      29.83R
6HR MIN TEMP:  42; 6HR MAX TEMP:  46; 6HR PCP:  0.06;

NORTHERLY ISL    N/A     41  37  86 N13         N/A
$$

LMZ740>746-260100-
SOUTHERN LAKE MICHIGAN

STATION/POSITION SKY/WX   TEMP    WIND        PRES    VSBY  WAVE
                          AIR SEA DIR/SP/G                  HT/PER
                          (F)     (DEG/KT/KT) (MB)    (MI)  (FT/S)
HARRISON CRIB              40      10/ 15/ 17   N/A
BURNHAM HARBOR             43      10/ 10/ 15   N/A
CALUMET HARBOR             43      10/  9/ 12   N/A
BURNS HARBOR               45      40/ 10/ 14 1008.8R
MICHIGAN CITY              47      40/ 11/ 13   N/A
MICHIGAN CITY 6N           42 45   30/  8/ 10   N/A           2/ 3
$$

ILZ025>027-034>036-040-047-049-050-058-095>099-260100-
WEST-CENTRAL ILLINOIS

CITY           SKY/WX    TMP DP  RH WIND       PRES   REMARKS
MACOMB*        CLOUDY    47  45  94 NE16      29.74R
$$

ILZ028>032-037-038-041>044-048-051>054-059>061-260100-
CENTRAL ILLINOIS

CITY           SKY/WX    TMP DP  RH WIND       PRES   REMARKS
DECATUR        CLOUDY    50  46  86 NE18      29.65R
PEORIA         CLOUDY    49  44  83 NE18G24   29.72R
6HR MIN TEMP:  49; 6HR MAX TEMP:  50;

LINCOLN*       CLOUDY    49  45  85 NE20G26   29.67R
SPRINGFIELD    CLOUDY    51  46  83 NE20G29   29.66R
6HR MIN TEMP:  51; 6HR MAX TEMP:  57;

TAYLORVILLE    NOT AVBL
$$

ILZ033-039-045-046-055>057-062-063-260100-
EAST-CENTRAL ILLINOIS

CITY           SKY/WX    TMP DP  RH WIND       PRES   REMARKS
CHAMPAIGN      CLOUDY    47  44  90 NE18G25   29.66R
MATTOON        CLOUDY    50  47  89 N16       29.60R
$$

ILZ079-100>102-260100-
SOUTHWEST ILLINOIS

CITY           SKY/WX    TMP DP  RH WIND       PRES   REMARKS
BELLEVILLE     CLOUDY    57  57 100 N6        29.56R
CAHOKIA*       CLOUDY    59  56  89 N9        29.57R
SPARTA*        CLOUDY    60  59  97 N5        29.56R
$$

ILZ064>066-069>071-074>076-080>082-084>086-088>090-092>094-260100-
SOUTH-CENTRAL ILLINOIS

CITY           SKY/WX    TMP DP  RH WIND       PRES   REMARKS
CARBONDALE     PTCLDY    64  58  80 N7        29.54R
6HR MIN TEMP:  61; 6HR MAX TEMP:  77; 6HR PCP:  0.26;

MT. VERNON     CLOUDY    57  52  82 N5        29.57R
SALEM*         DRIZZLE   56  54  91 NE7       29.57R
$$

ILZ067-068-072-073-078-083-087-091-260100-
SOUTHEAST ILLINOIS

CITY           SKY/WX    TMP DP  RH WIND       PRES   REMARKS
LAWRENCEVILLE  CLOUDY    53  51  93 NE14      29.55R
FLORA*         CLOUDY    54  52  94 NE8       29.56R
HARRISBURG*    MOCLDY    62  62 100 N6        29.54R
ROBINSON*      RAIN      51  50  97 NE8       29.57R
$$

ABBREVIATIONS USED IN REMARKS
   TC - TEMPERATURE IN CELSIUS
  WCI - WIND CHILL INDEX
   HX - HEAT INDEX
  VSB - VISIBILITY
$$




USA.gov is the U.S. government's official web portal to all federal, state and local government web resources and services.